UAE384 OMDB-VTBS

Flight info

Callsign UAE384
Flight time N/A
Altitude 35000
Route IVURO M677 LALDO B505 NADSO B524 ALPOR M504 TELEM A791 EKIGA/N0484F370 A791 BPL T1 BBS N895 BETNO P646 TARED WILLA1C
Aircraft B77W/H-SDE1E2E3FGHIJ2J3J4J5M1RWXY/LB1D1

Departure

Time 2026-04-23 17:42
Airport Dubai International Airport (OMDB)

Arrival

Time N/A
Airport Suvarnabhumi Airport (VTBS)
Time Latitude Longitude Altitude Speed Heading
2026-04-23 16:58 25.25245 55.35643 32 ft 0 kts 211°
2026-04-23 17:27 25.25274 55.35663 31 ft 4 kts 211°
2026-04-23 17:27 25.25297 55.35678 31 ft 4 kts 211°
2026-04-23 17:27 25.25311 55.35689 31 ft 2 kts 235°
2026-04-23 17:27 25.25316 55.35702 31 ft 2 kts 264°
2026-04-23 17:28 25.25315 55.35721 31 ft 3 kts 288°
2026-04-23 17:28 25.25310 55.35736 31 ft 2 kts 296°
2026-04-23 17:28 25.25305 55.35747 32 ft 2 kts 299°
2026-04-23 17:28 25.25302 55.35753 32 ft 0 kts 301°
2026-04-23 17:32 25.25304 55.35748 32 ft 3 kts 301°
2026-04-23 17:32 25.25328 55.35706 32 ft 9 kts 301°
2026-04-23 17:32 25.25360 55.35648 30 ft 9 kts 301°
2026-04-23 17:32 25.25402 55.35572 29 ft 14 kts 302°
2026-04-23 17:33 25.25455 55.35478 29 ft 14 kts 302°
2026-04-23 17:33 25.25508 55.35385 29 ft 14 kts 301°
2026-04-23 17:33 25.25560 55.35291 29 ft 14 kts 301°
2026-04-23 17:33 25.25612 55.35198 29 ft 13 kts 302°
2026-04-23 17:34 25.25688 55.35159 31 ft 13 kts 19°
2026-04-23 17:34 25.25769 55.35207 29 ft 13 kts 30°
2026-04-23 17:34 25.25914 55.35303 26 ft 9 kts 32°
2026-04-23 17:35 25.25936 55.35319 26 ft 1 kts 32°
2026-04-23 17:35 25.25943 55.35325 26 ft 5 kts 38°
2026-04-23 17:35 25.25996 55.35400 27 ft 14 kts 64°
2026-04-23 17:36 25.26008 55.35507 28 ft 14 kts 101°
2026-04-23 17:36 25.25956 55.35617 28 ft 19 kts 121°
2026-04-23 17:36 25.25875 55.35765 28 ft 26 kts 122°
2026-04-23 17:36 25.25784 55.35925 28 ft 24 kts 122°
2026-04-23 17:37 25.25694 55.36083 28 ft 24 kts 122°
2026-04-23 17:37 25.25605 55.36242 29 ft 24 kts 122°
2026-04-23 17:37 25.25427 55.36558 29 ft 24 kts 121°
2026-04-23 17:38 25.25338 55.36718 28 ft 24 kts 121°
2026-04-23 17:38 25.25248 55.36876 29 ft 24 kts 122°
2026-04-23 17:38 25.25158 55.37035 29 ft 24 kts 122°
2026-04-23 17:38 25.25070 55.37192 30 ft 24 kts 122°
2026-04-23 17:39 25.24981 55.37351 30 ft 24 kts 121°
2026-04-23 17:39 25.24892 55.37510 30 ft 24 kts 121°
2026-04-23 17:39 25.24803 55.37669 30 ft 24 kts 122°
2026-04-23 17:39 25.24724 55.37806 29 ft 19 kts 122°
2026-04-23 17:40 25.24671 55.37907 29 ft 10 kts 107°
2026-04-23 17:40 25.24695 55.37966 30 ft 7 kts 33°
2026-04-23 17:40 25.24736 55.37996 32 ft 7 kts 33°
2026-04-23 17:40 25.24778 55.38024 34 ft 7 kts 20°
2026-04-23 17:41 25.24819 55.38001 34 ft 7 kts 307°
2026-04-23 17:41 25.24960 55.37749 35 ft 63 kts 301°
2026-04-23 17:41 25.25315 55.37110 35 ft 130 kts 301°
2026-04-23 17:42 25.26577 55.34875 521 ft 187 kts 302°
2026-04-23 17:42 25.27236 55.33610 1054 ft 193 kts 302°
2026-04-23 17:42 25.27916 55.32305 1609 ft 199 kts 303°
2026-04-23 17:43 25.28674 55.30936 1924 ft 220 kts 307°
2026-04-23 17:43 25.29801 55.29794 2339 ft 225 kts 338°
2026-04-23 17:43 25.31322 55.29460 2878 ft 228 kts
2026-04-23 17:43 25.32925 55.29515 3468 ft 232 kts
2026-04-23 17:44 25.34552 55.29563 4110 ft 236 kts
2026-04-23 17:44 25.36213 55.29614 4727 ft 241 kts
2026-04-23 17:44 25.39605 55.29957 5897 ft 252 kts 25°
2026-04-23 17:45 25.40996 55.31193 6147 ft 273 kts 50°
2026-04-23 17:45 25.43475 55.34677 7147 ft 295 kts 50°
2026-04-23 17:45 25.44754 55.36450 7844 ft 300 kts 50°
2026-04-23 17:46 25.47407 55.40093 9280 ft 308 kts 50°
2026-04-23 17:46 25.48747 55.41937 9972 ft 313 kts 51°
2026-04-23 17:46 25.50099 55.43864 10460 ft 325 kts 52°
2026-04-23 17:47 25.51526 55.45935 10632 ft 348 kts 55°
2026-04-23 17:47 25.52569 55.48426 10800 ft 367 kts 80°
2026-04-23 17:47 25.51560 55.53902 12018 ft 370 kts 124°
2026-04-23 17:48 25.50154 55.56327 12708 ft 377 kts 126°
2026-04-23 17:48 25.48709 55.58771 13554 ft 380 kts 126°
2026-04-23 17:48 25.47282 55.61205 14343 ft 383 kts 126°
2026-04-23 17:48 25.45829 55.63722 15046 ft 390 kts 125°
2026-04-23 17:49 25.44366 55.66281 15716 ft 397 kts 125°
2026-04-23 17:49 25.42901 55.68898 16399 ft 403 kts 121°
2026-04-23 17:49 25.41910 55.71835 16910 ft 414 kts 104°
2026-04-23 17:49 25.41388 55.75008 17554 ft 421 kts 100°
2026-04-23 17:50 25.40950 55.78203 18268 ft 427 kts 99°
2026-04-23 17:50 25.40123 55.84776 19593 ft 434 kts 98°
2026-04-23 17:50 25.39707 55.88108 20265 ft 438 kts 98°
2026-04-23 17:51 25.39282 55.91464 20938 ft 442 kts 98°
2026-04-23 17:51 25.38853 55.94811 21567 ft 447 kts 99°
2026-04-23 17:51 25.37958 56.01691 22833 ft 455 kts 99°
2026-04-23 17:52 25.37500 56.05180 23440 ft 460 kts 99°
2026-04-23 17:52 25.36572 56.12232 24512 ft 467 kts 98°
2026-04-23 17:52 25.36100 56.15805 25046 ft 470 kts 98°
2026-04-23 17:53 25.35152 56.22978 26061 ft 478 kts 98°
2026-04-23 17:53 25.34666 56.26635 26564 ft 482 kts 98°
2026-04-23 17:53 25.34177 56.30313 27071 ft 486 kts 98°
2026-04-23 17:54 25.33683 56.34021 27539 ft 490 kts 98°
2026-04-23 17:54 25.33186 56.37761 27996 ft 493 kts 98°
2026-04-23 17:54 25.32175 56.45327 28881 ft 501 kts 98°
2026-04-23 17:55 25.31142 56.53016 29738 ft 508 kts 98°
2026-04-23 17:55 25.30600 56.56839 30101 ft 512 kts 101°
2026-04-23 17:55 25.29786 56.60678 30446 ft 515 kts 106°
2026-04-23 17:56 25.28649 56.64434 30805 ft 516 kts 112°
2026-04-23 17:56 25.25831 56.71769 31538 ft 518 kts 114°
2026-04-23 17:56 25.24402 56.75433 31956 ft 518 kts 114°
2026-04-23 17:57 25.22992 56.79072 32446 ft 515 kts 114°
2026-04-23 17:57 25.21596 56.82704 32938 ft 513 kts 114°
2026-04-23 17:57 25.18851 56.89906 33722 ft 511 kts 114°
2026-04-23 17:58 25.17472 56.93536 34035 ft 512 kts 114°
2026-04-23 17:58 25.16090 56.97171 34268 ft 514 kts 114°
2026-04-23 17:58 25.14703 57.00815 34449 ft 516 kts 114°
2026-04-23 17:58 25.13307 57.04478 34609 ft 519 kts 114°
2026-04-23 17:59 25.11902 57.08161 34746 ft 522 kts 114°
2026-04-23 17:59 25.09079 57.15545 34835 ft 521 kts 114°
2026-04-23 18:00 25.06263 57.22898 34849 ft 525 kts 114°
2026-04-23 18:00 25.03404 57.30351 34861 ft 529 kts 114°
2026-04-23 18:01 25.00544 57.37794 34849 ft 530 kts 114°
2026-04-23 18:01 24.98133 57.44058 34844 ft 529 kts 114°
2026-04-23 18:02 24.95265 57.51497 34835 ft 527 kts 114°
2026-04-23 18:02 24.92399 57.58919 34853 ft 525 kts 114°
2026-04-23 18:03 24.89555 57.66272 34842 ft 523 kts 114°
2026-04-23 18:03 24.86698 57.73646 34837 ft 522 kts 114°
2026-04-23 18:04 24.83874 57.81031 34838 ft 522 kts 111°
2026-04-23 18:04 24.81898 57.88675 34860 ft 522 kts 102°
2026-04-23 18:05 24.80376 57.96465 34835 ft 522 kts 102°
2026-04-23 18:05 24.78830 58.04309 34843 ft 523 kts 102°
2026-04-23 18:06 24.77250 58.12096 34847 ft 523 kts 102°
2026-04-23 18:06 24.75639 58.19925 34844 ft 523 kts 102°
2026-04-23 18:07 24.74027 58.27742 34847 ft 523 kts 102°
2026-04-23 18:07 24.72422 58.35512 34842 ft 523 kts 102°
2026-04-23 18:08 24.70806 58.43325 34845 ft 522 kts 102°
2026-04-23 18:08 24.69196 58.51084 34844 ft 522 kts 102°
2026-04-23 18:09 24.67572 58.58889 34843 ft 521 kts 103°
2026-04-23 18:09 24.65963 58.66601 34848 ft 520 kts 102°
2026-04-23 18:10 24.64341 58.74353 34837 ft 519 kts 103°
2026-04-23 18:10 24.62727 58.82046 34841 ft 518 kts 103°
2026-04-23 18:11 24.61101 58.89779 34834 ft 517 kts 103°
2026-04-23 18:11 24.59477 58.97478 34840 ft 516 kts 103°
2026-04-23 18:12 24.57863 59.05113 34835 ft 515 kts 103°
2026-04-23 18:12 24.56233 59.12804 34840 ft 514 kts 103°
2026-04-23 18:13 24.54618 59.20405 34840 ft 513 kts 103°
2026-04-23 18:13 24.52993 59.28043 34837 ft 512 kts 103°
2026-04-23 18:14 24.51385 59.35611 34833 ft 510 kts 103°
2026-04-23 18:14 24.49767 59.43211 34843 ft 509 kts 103°
2026-04-23 18:15 24.48147 59.50794 34834 ft 509 kts 103°
2026-04-23 18:15 24.46538 59.58308 34842 ft 508 kts 103°
2026-04-23 18:16 24.44917 59.65856 34836 ft 507 kts 103°
2026-04-23 18:16 24.43289 59.73415 34834 ft 507 kts 103°
2026-04-23 18:17 24.40854 59.84690 34839 ft 507 kts 103°
2026-04-23 18:17 24.39232 59.92178 34836 ft 507 kts 103°
2026-04-23 18:18 24.37594 59.99723 34835 ft 507 kts 103°
2026-04-23 18:18 24.35958 60.07238 34838 ft 508 kts 103°
2026-04-23 18:19 24.34307 60.14788 34838 ft 508 kts 103°
2026-04-23 18:19 24.32654 60.22296 34836 ft 508 kts 103°
2026-04-23 18:20 24.30989 60.29849 34837 ft 509 kts 102°
2026-04-23 18:20 24.29329 60.37361 34833 ft 509 kts 102°
2026-04-23 18:21 24.27660 60.44900 34839 ft 509 kts 102°
2026-04-23 18:21 24.25981 60.52465 34840 ft 509 kts 102°
2026-04-23 18:22 24.24310 60.59974 34842 ft 509 kts 102°
2026-04-23 18:22 24.22627 60.67520 34838 ft 509 kts 102°
2026-04-23 18:23 24.20105 60.78795 34840 ft 509 kts 103°
2026-04-23 18:24 24.17571 60.90091 34838 ft 508 kts 103°
2026-04-23 18:25 24.15038 61.01349 34843 ft 508 kts 103°
2026-04-23 18:25 24.13351 61.08823 34840 ft 507 kts 103°
2026-04-23 18:26 24.11656 61.16315 34841 ft 506 kts 103°
2026-04-23 18:26 24.09957 61.23810 34838 ft 506 kts 103°
2026-04-23 18:27 24.08278 61.31258 34839 ft 504 kts 101°
2026-04-23 18:27 24.07358 61.38846 34840 ft 502 kts 92°
2026-04-23 18:28 24.06960 61.46436 34840 ft 501 kts 92°
2026-04-23 18:28 24.06558 61.54039 34840 ft 500 kts 92°
2026-04-23 18:29 24.06118 61.61632 34833 ft 500 kts 92°
2026-04-23 18:29 24.05659 61.69184 34841 ft 499 kts 92°
2026-04-23 18:30 24.05193 61.76764 34836 ft 498 kts 92°
2026-04-23 18:30 24.04724 61.84343 34836 ft 498 kts 92°
2026-04-23 18:31 24.04256 61.91876 34835 ft 497 kts 92°
2026-04-23 18:31 24.03783 61.99439 34837 ft 497 kts 93°
2026-04-23 18:32 24.03307 62.06982 34843 ft 496 kts 93°
2026-04-23 18:32 24.02830 62.14476 34843 ft 496 kts 93°
2026-04-23 18:33 24.02347 62.22019 34841 ft 496 kts 93°
2026-04-23 18:33 24.01860 62.29549 34840 ft 496 kts 93°
2026-04-23 18:34 24.01373 62.37036 34841 ft 495 kts 93°
2026-04-23 18:34 24.00880 62.44552 34838 ft 495 kts 93°
2026-04-23 18:35 24.00383 62.52077 34840 ft 494 kts 92°
2026-04-23 18:35 23.99883 62.59589 34844 ft 494 kts 92°
2026-04-23 18:36 23.99382 62.67052 34842 ft 493 kts 92°
2026-04-23 18:36 23.98877 62.74540 34842 ft 493 kts 92°
2026-04-23 18:37 23.98367 62.82030 34844 ft 493 kts 92°
2026-04-23 18:37 23.97858 62.89469 34844 ft 492 kts 92°
2026-04-23 18:38 23.97341 62.96951 34845 ft 492 kts 92°
2026-04-23 18:38 23.96824 63.04388 34844 ft 492 kts 92°
2026-04-23 18:39 23.96302 63.11857 34844 ft 493 kts 92°
2026-04-23 18:39 23.95774 63.19345 34844 ft 493 kts 92°
2026-04-23 18:40 23.95243 63.26828 34845 ft 494 kts 92°